QPF
0.01 0.01 0.00 0.01 0.00 0.01 0.02 0.01 0.00 0.00 0.00 0.00 0.01 0.01 0.00 0.00 0.01 0.02 0.02 0.01 0.02 0.02 0.02 0.03 0.03 0.04 0.07 0.08 0.08 0.06 0.05 0.05 0.07 0.11 0.11 0.10 0.09 0.06 0.04 0.04 0.04 0.05 0.06 0.05
0.01 0.00 0.00 0.01 0.01 0.01 0.02 0.02 0.01 0.00 0.00 0.00 0.01 0.01 0.01 0.01 0.00 0.01 0.01 0.01 0.01 0.02 0.02 0.03 0.04 0.06 0.07 0.09 0.11 0.09 0.05 0.04 0.04 0.06 0.10 0.10 0.11 0.10 0.07 0.05 0.05 0.05 0.06 0.06
0.00 0.00 0.00 0.01 0.01 0.01 0.01 0.01 0.01 0.00 0.00 0.01 0.01 0.01 0.01 0.01 0.01 0.01 0.02 0.01 0.02 0.02 0.03 0.04 0.05 0.08 0.10 0.12 0.13 0.11 0.07 0.04 0.03 0.03 0.07 0.10 0.10 0.12 0.10 0.07 0.06 0.05 0.05 0.05
0.00 0.00 0.00 0.01 0.01 0.01 0.01 0.01 0.01 0.01 0.01 0.02 0.01 0.02 0.02 0.01 0.00 0.01 0.02 0.02 0.02 0.02 0.03 0.06 0.09 0.10 0.13 0.14 0.13 0.09 0.06 0.06 0.06 0.05 0.05 0.08 0.09 0.08 0.08 0.08 0.07 0.07 0.06 0.05
0.00 0.00 0.00 0.01 0.01 0.02 0.01 0.00 0.01 0.01 0.01 0.02 0.01 0.02 0.01 0.02 0.01 0.01 0.03 0.03 0.02 0.03 0.05 0.09 0.12 0.11 0.14 0.12 0.10 0.08 0.03 0.02 0.06 0.11 0.11 0.09 0.10 0.09 0.08 0.08 0.08 0.07 0.06 0.05
0.00 0.00 0.01 0.01 0.01 0.01 0.01 0.00 0.01 0.01 0.02 0.02 0.01 0.01 0.01 0.02 0.02 0.01 0.02 0.03 0.03 0.05 0.09 0.11 0.10 0.09 0.11 0.10 0.08 0.06 0.03 0.01 0.01 0.04 0.07 0.11 0.13 0.14 0.11 0.09 0.08 0.07 0.06 0.05
0.01 0.01 0.01 0.01 0.01 0.01 0.01 0.01 0.02 0.02 0.02 0.01 0.01 0.01 0.01 0.01 0.01 0.02 0.03 0.04 0.03 0.06 0.09 0.10 0.10 0.09 0.09 0.09 0.07 0.04 0.03 0.02 0.01 0.01 0.03 0.05 0.08 0.12 0.14 0.12 0.10 0.10 0.09 0.08
0.01 0.01 0.01 0.01 0.01 0.01 0.01 0.01 0.02 0.02 0.01 0.01 0.01 0.01 0.01 0.01 0.02 0.02 0.02 0.03 0.04 0.06 0.09 0.10 0.09 0.09 0.09 0.10 0.07 0.03 0.02 0.01 0.01 0.01 0.02 0.03 0.05 0.07 0.10 0.10 0.08 0.08 0.09 0.08
0.01 0.02 0.01 0.01 0.00 0.01 0.01 0.01 0.01 0.02 0.02 0.01 0.01 0.01 0.01 0.01 0.02 0.03 0.03 0.03 0.04 0.06 0.08 0.08 0.06 0.06 0.06 0.08 0.09 0.05 0.03 0.02 0.01 0.01 0.01 0.02 0.03 0.06 0.08 0.09 0.08 0.05 0.05 0.05
0.02 0.03 0.01 0.01 0.01 0.01 0.01 0.01 0.01 0.03 0.03 0.01 0.01 0.01 0.01 0.02 0.03 0.04 0.05 0.05 0.05 0.06 0.06 0.06 0.05 0.05 0.05 0.06 0.07 0.06 0.04 0.02 0.02 0.02 0.02 0.03 0.03 0.05 0.08 0.10 0.09 0.07 0.04 0.04
0.02 0.02 0.02 0.01 0.01 0.01 0.00 0.01 0.01 0.02 0.02 0.02 0.01 0.01 0.01 0.02 0.03 0.04 0.05 0.05 0.05 0.05 0.04 0.04 0.03 0.03 0.05 0.07 0.08 0.06 0.04 0.04 0.03 0.02 0.02 0.03 0.03 0.03 0.06 0.09 0.10 0.09 0.06 0.04
0.02 0.01 0.01 0.01 0.00 0.00 0.00 0.00 0.01 0.02 0.01 0.01 0.02 0.01 0.01 0.02 0.02 0.02 0.04 0.04 0.03 0.02 0.02 0.02 0.02 0.02 0.02 0.05 0.06 0.06 0.05 0.05 0.04 0.04 0.03 0.04 0.04 0.04 0.06 0.09 0.10 0.09 0.07 0.05
0.03 0.02 0.02 0.01 0.01 0.00 0.00 0.00 0.01 0.02 0.03 0.02 0.02 0.01 0.01 0.01 0.01 0.02 0.02 0.01 0.01 0.01 0.01 0.01 0.02 0.01 0.02 0.02 0.03 0.04 0.03 0.03 0.03 0.02 0.02 0.03 0.03 0.04 0.05 0.08 0.09 0.10 0.07 0.06
0.03 0.03 0.02 0.02 0.01 0.00 0.00 0.00 0.00 0.01 0.02 0.01 0.01 0.01 0.01 0.01 0.00 0.01 0.01 0.01 0.01 0.01 0.01 0.01 0.02 0.02 0.02 0.02 0.02 0.02 0.02 0.02 0.02 0.02 0.02 0.03 0.04 0.04 0.05 0.07 0.08 0.09 0.07 0.05
0.02 0.02 0.01 0.01 0.00 0.00 0.00 0.00 0.00 0.01 0.01 0.01 0.00 0.00 0.00 0.00 0.00 0.01 0.01 0.01 0.01 0.01 0.01 0.01 0.01 0.01 0.02 0.02 0.01 0.02 0.02 0.01 0.01 0.02 0.02 0.03 0.04 0.06 0.07 0.07 0.06 0.07 0.06 0.04
0.01 0.02 0.01 0.00 0.00 0.00 0.00 0.00 0.00 0.00 0.00 0.00 0.00 0.00 0.00 0.00 0.00 0.00 0.00 0.00 0.01 0.01 0.01 0.01 0.01 0.01 0.02 0.02 0.01 0.01 0.02 0.01 0.01 0.02 0.02 0.04 0.06 0.06 0.08 0.08 0.06 0.06 0.05 0.03
0.01 0.02 0.01 0.01 0.01 0.00 0.00 0.01 0.01 0.01 0.00 0.00 0.01 0.01 0.00 0.00 0.00 0.01 0.01 0.01 0.01 0.02 0.02 0.02 0.01 0.01 0.02 0.02 0.02 0.01 0.02 0.02 0.02 0.03 0.03 0.04 0.05 0.06 0.07 0.07 0.08 0.06 0.05 0.03
0.02 0.02 0.02 0.01 0.01 0.01 0.01 0.01 0.01 0.01 0.01 0.01 0.01 0.00 0.00 0.00 0.00 0.00 0.01 0.01 0.02 0.02 0.03 0.03 0.03 0.02 0.03 0.03 0.02 0.03 0.02 0.02 0.03 0.04 0.03 0.03 0.04 0.05 0.06 0.07 0.07 0.06 0.05 0.03
0.01 0.02 0.02 0.02 0.01 0.01 0.01 0.01 0.01 0.01 0.01 0.01 0.01 0.00 0.00 0.00 0.00 0.00 0.00 0.01 0.02 0.03 0.05 0.07 0.05 0.04 0.04 0.03 0.03 0.03 0.03 0.03 0.05 0.05 0.04 0.04 0.04 0.05 0.06 0.07 0.07 0.06 0.05 0.04
0.01 0.02 0.02 0.02 0.01 0.01 0.01 0.01 0.00 0.01 0.02 0.01 0.01 0.00 0.00 0.00 0.00 0.00 0.00 0.00 0.01 0.02 0.03 0.07 0.09 0.06 0.04 0.04 0.04 0.03 0.04 0.04 0.04 0.06 0.05 0.06 0.05 0.05 0.06 0.07 0.07 0.07 0.06 0.05
0.01 0.02 0.03 0.02 0.01 0.01 0.01 0.00 0.00 0.01 0.01 0.01 0.01 0.00 0.00 0.01 0.01 0.01 0.00 0.00 0.01 0.01 0.01 0.02 0.07 0.09 0.07 0.05 0.04 0.03 0.05 0.05 0.05 0.06 0.07 0.08 0.07 0.06 0.07 0.07 0.07 0.08 0.08 0.07
0.01 0.02 0.02 0.02 0.02 0.01 0.01 0.00 0.01 0.01 0.01 0.01 0.01 0.01 0.00 0.00 0.00 0.00 0.00 0.00 0.01 0.01 0.01 0.01 0.03 0.07 0.08 0.06 0.04 0.04 0.05 0.05 0.04 0.05 0.07 0.09 0.09 0.07 0.08 0.09 0.08 0.09 0.09 0.10
0.01 0.02 0.02 0.02 0.02 0.01 0.01 0.01 0.01 0.01 0.01 0.01 0.01 0.01 0.01 0.01 0.00 0.00 0.00 0.00 0.01 0.01 0.01 0.01 0.01 0.03 0.06 0.06 0.05 0.04 0.04 0.04 0.04 0.04 0.06 0.08 0.10 0.10 0.09 0.09 0.10 0.09 0.09 0.09
0.02 0.01 0.02 0.02 0.01 0.00 0.00 0.00 0.01 0.01 0.01 0.02 0.02 0.02 0.02 0.01 0.01 0.00 0.00 0.00 0.00 0.00 0.00 0.00 0.01 0.02 0.03 0.04 0.05 0.05 0.04 0.03 0.03 0.03 0.05 0.06 0.08 0.09 0.08 0.08 0.09 0.10 0.09 0.08
0.01 0.02 0.02 0.02 0.02 0.01 0.01 0.01 0.01 0.01 0.01 0.02 0.02 0.02 0.02 0.01 0.01 0.00 0.00 0.00 0.00 0.00 0.00 0.00 0.01 0.01 0.02 0.02 0.03 0.04 0.04 0.03 0.03 0.03 0.04 0.05 0.06 0.06 0.06 0.06 0.07 0.08 0.09 0.09
0.01 0.01 0.01 0.02 0.02 0.02 0.01 0.01 0.01 0.02 0.02 0.02 0.02 0.02 0.02 0.01 0.01 0.01 0.00 0.00 0.00 0.00 0.00 0.00 0.00 0.01 0.01 0.01 0.01 0.02 0.03 0.02 0.02 0.02 0.03 0.04 0.05 0.05 0.05 0.05 0.05 0.07 0.08 0.08
MSLP
1017.45 1017.68 1017.76 1017.71 1017.55 1017.36 1017.19 1017.10 1017.13 1017.29 1017.56 1017.91 1018.30 1018.67 1019.00 1019.28 1019.51 1019.71 1019.92 1020.14 1020.39 1020.66 1020.93 1021.17 1021.36 1021.48 1021.54 1021.56 1021.58 1021.65 1021.80 1022.07 1022.44 1022.92 1023.45 1023.99 1024.48 1024.90 1025.20 1025.39 1025.49 1025.52 1025.52 1025.53
1017.45 1017.62 1017.65 1017.56 1017.42 1017.26 1017.15 1017.12 1017.21 1017.39 1017.64 1017.92 1018.18 1018.41 1018.58 1018.71 1018.82 1018.94 1019.12 1019.36 1019.67 1020.02 1020.38 1020.70 1020.95 1021.11 1021.19 1021.21 1021.23 1021.29 1021.45 1021.73 1022.14 1022.67 1023.25 1023.85 1024.40 1024.87 1025.22 1025.46 1025.60 1025.69 1025.75 1025.82
1017.24 1017.35 1017.34 1017.27 1017.16 1017.09 1017.08 1017.16 1017.32 1017.52 1017.73 1017.90 1017.99 1018.01 1017.96 1017.87 1017.81 1017.81 1017.93 1018.17 1018.53 1018.97 1019.43 1019.86 1020.21 1020.45 1020.59 1020.66 1020.72 1020.81 1021.00 1021.32 1021.78 1022.34 1022.98 1023.62 1024.21 1024.72 1025.11 1025.39 1025.60 1025.75 1025.87 1026.01
1016.88 1016.93 1016.91 1016.87 1016.87 1016.93 1017.07 1017.28 1017.53 1017.75 1017.90 1017.93 1017.82 1017.58 1017.24 1016.89 1016.60 1016.44 1016.46 1016.68 1017.07 1017.60 1018.18 1018.74 1019.21 1019.57 1019.82 1019.98 1020.10 1020.26 1020.51 1020.88 1021.38 1021.99 1022.65 1023.31 1023.93 1024.46 1024.88 1025.20 1025.45 1025.67 1025.87 1026.09
1016.44 1016.45 1016.45 1016.48 1016.61 1016.84 1017.16 1017.53 1017.87 1018.12 1018.21 1018.08 1017.73 1017.20 1016.55 1015.90 1015.35 1014.99 1014.88 1015.05 1015.46 1016.05 1016.74 1017.44 1018.06 1018.56 1018.93 1019.21 1019.45 1019.69 1020.01 1020.44 1020.98 1021.61 1022.29 1022.96 1023.58 1024.11 1024.55 1024.90 1025.19 1025.47 1025.74 1026.04
1016.03 1016.01 1016.04 1016.18 1016.46 1016.87 1017.38 1017.91 1018.36 1018.63 1018.64 1018.34 1017.75 1016.93 1015.97 1015.01 1014.18 1013.61 1013.35 1013.44 1013.85 1014.49 1015.28 1016.09 1016.85 1017.50 1018.02 1018.43 1018.78 1019.13 1019.53 1020.02 1020.59 1021.24 1021.92 1022.58 1023.19 1023.71 1024.15 1024.52 1024.85 1025.17 1025.51 1025.88
1015.72 1015.69 1015.77 1016.02 1016.44 1017.03 1017.72 1018.39 1018.93 1019.20 1019.14 1018.69 1017.87 1016.77 1015.52 1014.27 1013.19 1012.41 1012.01 1012.02 1012.39 1013.06 1013.91 1014.82 1015.69 1016.47 1017.12 1017.65 1018.12 1018.57 1019.05 1019.60 1020.21 1020.87 1021.54 1022.19 1022.78 1023.29 1023.72 1024.10 1024.45 1024.82 1025.21 1025.64
1015.56 1015.55 1015.68 1016.01 1016.57 1017.30 1018.12 1018.90 1019.49 1019.75 1019.61 1019.01 1018.01 1016.69 1015.20 1013.72 1012.43 1011.48 1010.95 1010.86 1011.19 1011.85 1012.72 1013.69 1014.64 1015.50 1016.25 1016.89 1017.46 1018.00 1018.56 1019.16 1019.80 1020.48 1021.15 1021.79 1022.36 1022.86 1023.29 1023.68 1024.06 1024.46 1024.89 1025.37
1015.57 1015.56 1015.74 1016.15 1016.79 1017.61 1018.50 1019.32 1019.91 1020.14 1019.92 1019.21 1018.07 1016.59 1014.95 1013.32 1011.89 1010.81 1010.18 1010.01 1010.28 1010.90 1011.75 1012.72 1013.70 1014.61 1015.42 1016.13 1016.78 1017.40 1018.02 1018.68 1019.36 1020.06 1020.74 1021.38 1021.95 1022.45 1022.89 1023.30 1023.70 1024.13 1024.60 1025.11
1015.69 1015.71 1015.91 1016.35 1017.02 1017.86 1018.75 1019.55 1020.09 1020.26 1019.96 1019.17 1017.95 1016.39 1014.68 1012.99 1011.51 1010.37 1009.68 1009.45 1009.65 1010.20 1011.00 1011.92 1012.87 1013.77 1014.60 1015.35 1016.06 1016.73 1017.42 1018.13 1018.86 1019.59 1020.30 1020.96 1021.55 1022.07 1022.54 1022.97 1023.41 1023.87 1024.37 1024.89
1015.88 1015.92 1016.14 1016.57 1017.20 1017.98 1018.79 1019.49 1019.94 1020.01 1019.63 1018.79 1017.55 1016.01 1014.32 1012.67 1011.22 1010.10 1009.39 1009.12 1009.25 1009.72 1010.42 1011.25 1012.12 1012.98 1013.79 1014.55 1015.28 1016.01 1016.75 1017.52 1018.31 1019.09 1019.84 1020.54 1021.17 1021.73 1022.24 1022.71 1023.18 1023.67 1024.19 1024.72
1016.08 1016.14 1016.35 1016.73 1017.27 1017.92 1018.58 1019.12 1019.42 1019.37 1018.92 1018.07 1016.86 1015.40 1013.82 1012.29 1010.94 1009.90 1009.22 1008.94 1009.01 1009.37 1009.95 1010.67 1011.43 1012.21 1012.97 1013.71 1014.47 1015.23 1016.03 1016.87 1017.71 1018.56 1019.37 1020.12 1020.80 1021.42 1021.97 1022.49 1023.00 1023.52 1024.05 1024.59
1016.27 1016.34 1016.51 1016.80 1017.21 1017.67 1018.12 1018.45 1018.56 1018.39 1017.87 1017.03 1015.90 1014.57 1013.17 1011.82 1010.63 1009.71 1009.10 1008.81 1008.83 1009.10 1009.55 1010.13 1010.77 1011.45 1012.15 1012.88 1013.64 1014.44 1015.30 1016.19 1017.11 1018.01 1018.88 1019.70 1020.44 1021.10 1021.71 1022.28 1022.83 1023.38 1023.92 1024.46
1016.42 1016.50 1016.61 1016.79 1017.01 1017.25 1017.45 1017.55 1017.46 1017.14 1016.57 1015.75 1014.73 1013.58 1012.38 1011.25 1010.26 1009.49 1008.96 1008.69 1008.66 1008.83 1009.16 1009.60 1010.13 1010.71 1011.36 1012.06 1012.83 1013.67 1014.58 1015.53 1016.51 1017.47 1018.39 1019.26 1020.05 1020.77 1021.43 1022.05 1022.64 1023.21 1023.77 1024.29
1016.57 1016.63 1016.67 1016.70 1016.73 1016.72 1016.66 1016.50 1016.21 1015.75 1015.13 1014.35 1013.45 1012.49 1011.52 1010.62 1009.83 1009.21 1008.78 1008.53 1008.45 1008.53 1008.75 1009.07 1009.48 1009.99 1010.59 1011.28 1012.07 1012.94 1013.90 1014.90 1015.92 1016.92 1017.89 1018.79 1019.62 1020.39 1021.09 1021.75 1022.38 1022.99 1023.56 1024.08
1016.74 1016.76 1016.71 1016.58 1016.39 1016.14 1015.81 1015.41 1014.92 1014.34 1013.68 1012.95 1012.18 1011.40 1010.65 1009.96 1009.37 1008.89 1008.53 1008.30 1008.19 1008.19 1008.30 1008.51 1008.84 1009.28 1009.85 1010.54 1011.34 1012.25 1013.24 1014.28 1015.34 1016.37 1017.35 1018.28 1019.14 1019.94 1020.68 1021.39 1022.05 1022.69 1023.28 1023.82
1016.94 1016.91 1016.74 1016.45 1016.04 1015.55 1014.98 1014.36 1013.70 1013.01 1012.33 1011.65 1011.00 1010.39 1009.84 1009.35 1008.92 1008.55 1008.26 1008.03 1007.87 1007.80 1007.82 1007.95 1008.20 1008.60 1009.15 1009.84 1010.67 1011.60 1012.63 1013.69 1014.75 1015.79 1016.78 1017.72 1018.59 1019.42 1020.20 1020.94 1021.65 1022.33 1022.96 1023.51
1017.18 1017.06 1016.76 1016.30 1015.70 1014.99 1014.22 1013.41 1012.62 1011.86 1011.17 1010.55 1010.02 1009.56 1009.17 1008.83 1008.52 1008.24 1007.98 1007.74 1007.54 1007.40 1007.34 1007.40 1007.60 1007.96 1008.50 1009.19 1010.04 1010.99 1012.03 1013.09 1014.16 1015.19 1016.18 1017.11 1017.99 1018.84 1019.65 1020.44 1021.20 1021.93 1022.60 1023.19
1017.40 1017.18 1016.75 1016.13 1015.36 1014.47 1013.54 1012.60 1011.72 1010.93 1010.26 1009.72 1009.29 1008.96 1008.70 1008.47 1008.26 1008.03 1007.78 1007.51 1007.26 1007.05 1006.92 1006.91 1007.07 1007.41 1007.93 1008.63 1009.47 1010.43 1011.46 1012.51 1013.56 1014.58 1015.55 1016.47 1017.36 1018.23 1019.08 1019.92 1020.74 1021.52 1022.23 1022.87
1017.56 1017.22 1016.65 1015.89 1014.98 1013.97 1012.93 1011.92 1011.01 1010.23 1009.62 1009.15 1008.83 1008.62 1008.46 1008.33 1008.17 1007.96 1007.70 1007.40 1007.10 1006.82 1006.63 1006.57 1006.68 1006.98 1007.48 1008.17 1009.00 1009.94 1010.95 1011.98 1013.00 1013.99 1014.94 1015.85 1016.75 1017.63 1018.52 1019.41 1020.28 1021.11 1021.88 1022.55
1017.56 1017.10 1016.42 1015.55 1014.54 1013.46 1012.38 1011.36 1010.48 1009.76 1009.23 1008.87 1008.66 1008.55 1008.48 1008.41 1008.29 1008.10 1007.82 1007.49 1007.12 1006.79 1006.54 1006.43 1006.49 1006.76 1007.22 1007.87 1008.67 1009.57 1010.54 1011.53 1012.51 1013.46 1014.38 1015.29 1016.19 1017.09 1018.00 1018.93 1019.84 1020.72 1021.52 1022.23
1017.37 1016.79 1016.02 1015.07 1014.02 1012.93 1011.86 1010.90 1010.10 1009.49 1009.07 1008.83 1008.74 1008.73 1008.75 1008.74 1008.65 1008.46 1008.17 1007.80 1007.39 1007.01 1006.71 1006.55 1006.56 1006.77 1007.19 1007.78 1008.52 1009.37 1010.28 1011.20 1012.13 1013.04 1013.93 1014.81 1015.70 1016.61 1017.54 1018.49 1019.42 1020.32 1021.14 1021.86
1016.93 1016.26 1015.42 1014.44 1013.40 1012.35 1011.37 1010.52 1009.85 1009.38 1009.11 1009.01 1009.04 1009.14 1009.23 1009.28 1009.22 1009.04 1008.74 1008.35 1007.92 1007.50 1007.15 1006.94 1006.90 1007.05 1007.40 1007.92 1008.58 1009.35 1010.18 1011.03 1011.89 1012.74 1013.58 1014.43 1015.31 1016.20 1017.13 1018.07 1019.00 1019.89 1020.70 1021.41
1016.26 1015.52 1014.65 1013.69 1012.70 1011.75 1010.91 1010.21 1009.71 1009.42 1009.31 1009.35 1009.51 1009.70 1009.88 1009.97 1009.95 1009.79 1009.49 1009.10 1008.65 1008.21 1007.83 1007.58 1007.49 1007.57 1007.84 1008.27 1008.84 1009.51 1010.24 1011.00 1011.78 1012.56 1013.35 1014.15 1014.98 1015.84 1016.74 1017.64 1018.53 1019.39 1020.16 1020.83
1015.39 1014.61 1013.74 1012.84 1011.96 1011.16 1010.49 1009.98 1009.67 1009.56 1009.61 1009.80 1010.07 1010.36 1010.61 1010.75 1010.76 1010.62 1010.35 1009.97 1009.53 1009.08 1008.68 1008.39 1008.25 1008.26 1008.44 1008.77 1009.23 1009.79 1010.41 1011.07 1011.76 1012.46 1013.18 1013.92 1014.70 1015.50 1016.33 1017.17 1018.00 1018.78 1019.50 1020.11
1014.39 1013.60 1012.78 1011.98 1011.24 1010.62 1010.14 1009.84 1009.73 1009.79 1010.00 1010.31 1010.68 1011.04 1011.34 1011.52 1011.56 1011.45 1011.20 1010.85 1010.42 1009.98 1009.58 1009.27 1009.07 1009.02 1009.11 1009.34 1009.69 1010.13 1010.64 1011.19 1011.78 1012.39 1013.03 1013.70 1014.40 1015.13 1015.88 1016.63 1017.38 1018.07 1018.71 1019.26
Thickness
5564 5555 5553 5557 5559 5561 5559 5557 5558 5565 5570 5567 5567 5572 5579 5580 5578 5578 5579 5580 5582 5586 5591 5593 5596 5599 5603 5605 5608 5610 5613 5616 5617 5618 5619 5618 5618 5620 5621 5621 5622 5623 5623 5624
5547 5547 5555 5557 5556 5555 5552 5549 5550 5556 5562 5561 5560 5566 5573 5574 5574 5575 5576 5576 5577 5578 5581 5584 5587 5590 5593 5596 5598 5601 5604 5606 5608 5609 5610 5610 5610 5610 5611 5611 5612 5613 5614 5614
5541 5548 5554 5551 5547 5546 5546 5543 5544 5545 5550 5553 5551 5557 5565 5570 5571 5571 5571 5572 5572 5574 5574 5577 5579 5581 5583 5586 5589 5593 5594 5597 5598 5599 5600 5601 5600 5600 5601 5602 5602 5603 5604 5605
5534 5541 5545 5542 5540 5540 5538 5545 5543 5541 5533 5531 5540 5537 5557 5561 5564 5564 5563 5563 5564 5566 5567 5570 5572 5573 5575 5577 5580 5582 5585 5587 5588 5589 5590 5590 5590 5590 5591 5592 5592 5593 5594 5595
5529 5534 5535 5535 5537 5537 5535 5540 5537 5534 5527 5522 5528 5524 5546 5553 5556 5560 5558 5557 5557 5558 5560 5563 5565 5567 5568 5569 5570 5572 5574 5576 5578 5579 5580 5580 5580 5580 5581 5582 5582 5583 5584 5585
5524 5529 5529 5531 5533 5534 5532 5529 5526 5518 5513 5514 5524 5520 5536 5540 5551 5555 5554 5552 5551 5551 5553 5555 5557 5557 5558 5559 5561 5563 5564 5565 5567 5569 5570 5570 5570 5570 5570 5571 5572 5572 5573 5574
5513 5519 5523 5524 5523 5525 5521 5511 5502 5502 5496 5510 5523 5520 5532 5545 5547 5548 5547 5545 5544 5545 5545 5546 5546 5547 5549 5550 5552 5553 5554 5555 5557 5558 5559 5560 5561 5561 5561 5561 5562 5562 5562 5563
5501 5505 5514 5516 5516 5513 5512 5509 5499 5498 5496 5504 5514 5515 5531 5539 5540 5541 5541 5539 5537 5536 5536 5537 5537 5538 5539 5541 5542 5544 5545 5545 5546 5547 5548 5549 5550 5550 5550 5551 5552 5553 5553 5554
5494 5499 5508 5511 5514 5513 5506 5500 5502 5492 5489 5493 5505 5514 5527 5533 5531 5532 5531 5529 5527 5527 5527 5527 5528 5528 5529 5531 5532 5534 5535 5535 5536 5536 5538 5539 5539 5540 5541 5541 5541 5543 5543 5544
5492 5489 5496 5501 5506 5505 5505 5499 5489 5487 5488 5495 5503 5508 5517 5520 5520 5520 5519 5518 5518 5518 5517 5517 5518 5518 5519 5520 5521 5523 5525 5525 5526 5526 5527 5529 5529 5530 5531 5531 5531 5532 5533 5533
5487 5481 5483 5489 5491 5494 5493 5492 5487 5480 5479 5484 5492 5509 5518 5515 5515 5512 5510 5510 5508 5507 5507 5507 5507 5508 5508 5509 5510 5512 5513 5515 5515 5516 5517 5518 5519 5519 5520 5520 5520 5521 5522 5523
5478 5471 5469 5476 5485 5488 5489 5488 5481 5478 5476 5471 5475 5499 5514 5508 5507 5505 5503 5502 5500 5498 5498 5498 5497 5497 5498 5499 5500 5501 5502 5504 5505 5506 5507 5507 5508 5509 5509 5509 5509 5509 5511 5512
5470 5464 5465 5473 5475 5475 5476 5478 5477 5471 5467 5460 5469 5496 5503 5498 5498 5497 5495 5494 5492 5491 5490 5489 5488 5488 5489 5489 5490 5491 5493 5494 5495 5495 5495 5496 5496 5497 5497 5498 5498 5499 5500 5502
5467 5454 5460 5470 5473 5465 5462 5466 5466 5464 5460 5459 5470 5488 5495 5492 5490 5490 5488 5486 5484 5483 5482 5480 5479 5479 5479 5480 5481 5482 5484 5485 5486 5485 5485 5485 5486 5486 5487 5488 5488 5489 5489 5490
5455 5447 5450 5455 5460 5457 5459 5461 5458 5459 5462 5463 5475 5478 5490 5485 5481 5481 5480 5478 5477 5476 5475 5474 5473 5472 5471 5472 5473 5474 5475 5476 5476 5475 5475 5475 5475 5476 5476 5477 5478 5478 5478 5479
5439 5438 5439 5444 5452 5450 5453 5459 5457 5458 5460 5461 5465 5472 5481 5475 5472 5471 5470 5470 5470 5469 5469 5469 5468 5466 5465 5465 5466 5466 5466 5466 5466 5465 5465 5465 5465 5466 5466 5467 5468 5468 5468 5468
5427 5428 5428 5431 5437 5443 5447 5457 5456 5455 5453 5457 5462 5473 5471 5466 5466 5466 5465 5463 5463 5464 5464 5463 5462 5461 5460 5460 5459 5459 5459 5458 5457 5456 5456 5456 5456 5456 5456 5457 5457 5457 5458 5459
5420 5419 5414 5416 5423 5429 5458 5457 5454 5453 5455 5454 5458 5462 5462 5461 5460 5459 5458 5456 5456 5457 5457 5457 5456 5455 5454 5453 5452 5452 5451 5450 5449 5448 5447 5447 5447 5447 5448 5447 5447 5448 5449 5449
5419 5415 5406 5404 5409 5425 5448 5450 5445 5445 5451 5453 5450 5454 5454 5451 5451 5451 5452 5451 5450 5450 5450 5450 5449 5448 5447 5446 5445 5444 5443 5442 5441 5440 5440 5439 5439 5439 5439 5439 5439 5440 5441 5442
5407 5406 5401 5396 5407 5422 5448 5446 5443 5442 5443 5451 5446 5446 5445 5443 5443 5448 5446 5443 5442 5442 5442 5442 5441 5441 5440 5439 5438 5437 5436 5435 5434 5434 5434 5433 5433 5432 5432 5432 5432 5433 5433 5434
5397 5393 5393 5393 5397 5417 5436 5435 5437 5435 5446 5447 5442 5440 5437 5435 5438 5439 5437 5435 5434 5433 5433 5434 5433 5433 5433 5432 5431 5429 5428 5428 5428 5428 5427 5426 5426 5425 5425 5425 5425 5425 5425 5425
5396 5391 5387 5388 5392 5418 5431 5425 5428 5435 5438 5436 5434 5432 5430 5429 5429 5428 5427 5427 5425 5424 5425 5425 5424 5425 5425 5424 5423 5422 5421 5422 5420 5420 5419 5419 5419 5418 5418 5417 5417 5416 5416 5415
5394 5400 5400 5404 5419 5425 5421 5424 5427 5426 5425 5426 5424 5424 5422 5420 5419 5419 5418 5417 5416 5415 5415 5416 5415 5415 5415 5415 5415 5414 5413 5412 5412 5411 5411 5410 5410 5409 5409 5408 5407 5407 5407 5406
5393 5394 5394 5398 5412 5416 5416 5417 5418 5418 5417 5417 5416 5414 5413 5412 5411 5409 5408 5407 5406 5407 5406 5406 5406 5406 5405 5406 5405 5404 5404 5403 5402 5402 5401 5401 5400 5400 5400 5399 5399 5398 5398 5397
5396 5389 5390 5394 5405 5408 5415 5415 5415 5413 5411 5408 5407 5407 5406 5404 5403 5401 5399 5398 5397 5398 5397 5397 5397 5397 5397 5397 5397 5396 5395 5394 5393 5392 5392 5391 5391 5390 5390 5389 5389 5389 5389 5389
5392 5392 5393 5404 5409 5405 5411 5413 5410 5407 5405 5403 5400 5399 5397 5396 5395 5393 5391 5389 5389 5389 5389 5389 5388 5389 5389 5388 5388 5387 5387 5386 5384 5384 5383 5382 5382 5381 5381 5380 5380 5380 5380 5380